K5GHS-1 Weather Reports


time (UTC)temp
C
wind
direction
speed
KPH
gust
KPH
rain 1hr
cm
rain 24hr
cm
rain mn
cm
humidity
%
barometer
mb
20260906225438 36 80 3.2 4.8 0.00 0.00 0.00 40 1009.5
20260906224935 37 120 4.8 11.3 0.00 0.00 0.00 40 1009.6
20260906224431 37 123 4.8 8.0 0.00 0.00 0.00 40 1009.7
20260906223927 37 104 1.6 3.2 0.00 0.00 0.00 40 1009.9
20260906223422 37 121 3.2 3.2 0.00 0.00 0.00 39 1009.9
20260906222920 37 71 4.8 11.3 0.00 0.00 0.00 40 1009.8
20260906222420 37 106 6.4 9.7 0.00 0.00 0.00 40 1009.8
20260906221918 37 90 0.0 4.8 0.00 0.00 0.00 40 1009.7
20260906221417 38 82 4.8 4.8 0.00 0.00 0.00 39 1009.8
20260906220913 38 92 4.8 8.0 0.00 0.00 0.00 39 1009.8
20260906220408 37 99 1.6 3.2 0.00 0.00 0.00 40 1009.9
20260906215907 37 104 1.6 9.7 0.00 0.00 0.00 41 1009.7
20260906215402 37 87 1.6 8.0 0.00 0.00 0.00 41 1009.6
20260906214900 37 98 3.2 11.3 0.00 0.00 0.00 40 1009.7
20260906214359 38 94 3.2 9.7 0.00 0.00 0.00 40 1009.8
20260906213859 38 126 1.6 8.0 0.00 0.00 0.00 40 1009.7
20260906213353 37 119 3.2 4.8 0.00 0.00 0.00 40 1010.1
20260906212851 37 95 3.2 8.0 0.00 0.00 0.00 41 1010.0
20260906212346 37 64 1.6 4.8 0.00 0.00 0.00 41 1010.0
20260906211846 37 53 1.6 9.7 0.00 0.00 0.00 41 1010.3
20260906211341 37 41 4.8 8.0 0.00 0.00 0.00 41 1010.3
20260906210836 37 90 4.8 8.0 0.00 0.00 0.00 42 1010.5
20260906210331 37 69 1.6 1.6 0.00 0.00 0.00 42 1010.4
20260906205826 37 103 4.8 4.8 0.00 0.00 0.00 42 1010.4
20260906205323 37 80 4.8 8.0 0.00 0.00 0.00 41 1010.9
20260906204818 37 107 1.6 8.0 0.00 0.00 0.00 44 1010.5
20260906204317 37 57 8.0 12.9 0.00 0.00 0.00 43 1010.6
20260906203816 37 109 4.8 9.7 0.00 0.00 0.00 41 1010.9
20260906203312 37 81 3.2 9.7 0.00 0.00 0.00 42 1010.9
20260906202809 37 70 4.8 9.7 0.00 0.00 0.00 42 1010.8
20260906202308 37 107 4.8 8.0 0.00 0.00 0.00 41 1011.0
20260906201802 36 78 1.6 8.0 0.00 0.00 0.00 43 1011.0
20260906201302 37 70 6.4 8.0 0.00 0.00 0.00 42 1011.0
20260906200758 37 73 1.6 8.0 0.00 0.00 0.00 43 1011.2
20260906200253 37 74 4.8 8.0 0.00 0.00 0.00 42 1011.0
20260906195743 37 33 4.8 9.7 0.00 0.00 0.00 42 1010.9
20260906195239 37 28 1.6 8.0 0.00 0.00 0.00 43 1011.1
20260906194735 37 119 3.2 11.3 0.00 0.00 0.00 42 1011.2
20260906194231 36 82 4.8 4.8 0.00 0.00 0.00 43 1011.3
20260906193725 37 35 4.8 11.3 0.00 0.00 0.00 42 1011.4
20260906193220 37 85 3.2 9.7 0.00 0.00 0.00 43 1011.3
20260906192716 36 78 1.6 8.0 0.00 0.00 0.00 44 1011.6
20260906192216 36 81 1.6 12.9 0.00 0.00 0.00 43 1011.6
20260906191710 36 65 4.8 11.3 0.00 0.00 0.00 45 1011.5
20260906191210 36 115 4.8 12.9 0.00 0.00 0.00 46 1011.8
20260906190705 37 104 0.0 9.7 0.00 0.00 0.00 45 1011.8
20260906190159 36 115 9.7 12.9 0.00 0.00 0.00 45 1011.7
20260906185658 36 88 3.2 8.0 0.00 0.00 0.00 44 1012.0
20260906185157 36 72 1.6 3.2 0.00 0.00 0.00 48 1012.2
20260906184651 36 110 1.6 3.2 0.00 0.00 0.00 47 1012.0
20260906184148 36 76 0.0 4.8 0.00 0.00 0.00 48 1012.0
20260906183643 36 70 1.6 9.7 0.00 0.00 0.00 47 1011.9
20260906183139 36 83 0.0 3.2 0.00 0.00 0.00 47 1012.1
20260906182639 36 77 1.6 4.8 0.00 0.00 0.00 49 1012.2
20260906182135 36 91 8.0 12.9 0.00 0.00 0.00 47 1012.1
20260906181630 36 86 6.4 8.0 0.00 0.00 0.00 48 1012.4
20260906181126 36 95 3.2 8.0 0.00 0.00 0.00 47 1012.4
20260906180621 35 46 6.4 11.3 0.00 0.00 0.00 47 1012.5
20260906180115 35 87 8.0 11.3 0.00 0.00 0.00 48 1012.6
20260906175613 36 62 3.2 8.0 0.00 0.00 0.00 47 1012.6
20260906175109 36 83 4.8 9.7 0.00 0.00 0.00 47 1012.5
20260906174606 35 88 0.0 4.8 0.00 0.00 0.00 49 1012.6
20260906174101 35 113 3.2 8.0 0.00 0.00 0.00 50 1013.0
20260906173556 35 5 1.6 4.8 0.00 0.00 0.00 49 1012.7
20260906173053 35 84 4.8 9.7 0.00 0.00 0.00 50 1013.0
20260906172552 35 88 4.8 9.7 0.00 0.00 0.00 51 1013.0
20260906172047 35 113 8.0 9.7 0.00 0.00 0.00 50 1013.5
20260906171542 34 75 4.8 9.7 0.00 0.00 0.00 51 1013.4
20260906171038 35 108 1.6 9.7 0.00 0.00 0.00 51 1013.4
20260906170533 34 70 0.0 4.8 0.00 0.00 0.00 51 1013.4
20260906170032 35 91 1.6 12.9 0.00 0.00 0.00 52 1013.4
20260906165529 34 83 3.2 8.0 0.00 0.00 0.00 51 1013.4
20260906165024 34 99 3.2 8.0 0.00 0.00 0.00 52 1013.6
20260906164523 34 68 1.6 8.0 0.00 0.00 0.00 51 1013.5
20260906164019 34 127 3.2 4.8 0.00 0.00 0.00 52 1013.5
20260906163514 34 67 4.8 8.0 0.00 0.00 0.00 51 1013.4
20260906163010 34 86 1.6 4.8 0.00 0.00 0.00 53 1013.3
20260906162507 34 96 1.6 9.7 0.00 0.00 0.00 52 1013.2
20260906162002 33 68 4.8 4.8 0.00 0.00 0.00 54 1013.3
20260906161502 33 82 1.6 3.2 0.00 0.00 0.00 54 1013.2
20260906161000 33 103 0.0 4.8 0.00 0.00 0.00 55 1013.1
20260906160455 33 99 1.6 8.0 0.00 0.00 0.00 55 1013.3
20260906155953 34 67 0.0 8.0 0.00 0.00 0.00 55 1013.1
20260906155452 33 64 0.0 3.2 0.00 0.00 0.00 55 1013.3
20260906154948 33 76 1.6 3.2 0.00 0.00 0.00 60 1013.1
20260906154443 33 122 3.2 4.8 0.00 0.00 0.00 58 1013.3
20260906153941 33 47 1.6 3.2 0.00 0.00 0.00 61 1013.0
20260906153440 33 100 1.6 4.8 0.00 0.00 0.00 62 1013.1
20260906152935 32 60 0.0 4.8 0.00 0.00 0.00 63 1013.4
20260906152430 32 115 0.0 1.6 0.00 0.00 0.00 65 1013.0
20260906151929 32 87 1.6 1.6 0.00 0.00 0.00 66 1013.3
20260906151425 32 104 0.0 4.8 0.00 0.00 0.00 69 1013.1
20260906150920 32 85 4.8 8.0 0.00 0.00 0.00 68 1013.1
20260906150415 31 77 0.0 1.6 0.00 0.00 0.00 69 1013.0
20260906145915 31 75 1.6 4.8 0.00 0.00 0.00 71 1013.1
20260906145414 31 85 1.6 3.2 0.00 0.00 0.00 71 1012.8
20260906144909 31 120 3.2 3.2 0.00 0.00 0.00 71 1013.0
20260906144403 31 90 0.0 1.6 0.00 0.00 0.00 73 1013.0
20260906143859 30 69 0.0 3.2 0.00 0.00 0.00 74 1013.2
20260906143354 30 76 1.6 3.2 0.00 0.00 0.00 73 1013.0
20260906142850 30 66 1.6 3.2 0.00 0.00 0.00 73 1013.0
20260906142344 30 67 0.0 1.6 0.00 0.00 0.00 75 1013.0
20260906141845 30 75 0.0 1.6 0.00 0.00 0.00 77 1013.2
20260906141339 29 75 0.0 3.2 0.00 0.00 0.00 77 1013.3
20260906140838 29 63 0.0 3.2 0.00 0.00 0.00 78 1013.2
20260906140333 29 75 1.6 3.2 0.00 0.00 0.00 78 1013.0
20260906135831 28 77 0.0 3.2 0.00 0.00 0.00 80 1013.0
20260906135326 28 72 0.0 3.2 0.00 0.00 0.00 82 1012.8
20260906134821 28 83 1.6 3.2 0.00 0.00 0.00 83 1012.7
20260906134316 27 78 1.6 1.6 0.00 0.00 0.00 85 1013.0
20260906133812 27 72 1.6 1.6 0.00 0.00 0.00 87 1013.2
20260906133308 26 75 1.6 4.8 0.00 0.00 0.00 87 1012.7
20260906132802 26 80 1.6 3.2 0.00 0.00 0.00 88 1013.0
20260906132257 26 68 0.0 1.6 0.00 0.00 0.00 88 1013.0
20260906131753 26 74 0.0 3.2 0.00 0.00 0.00 89 1013.1
20260906131248 26 67 1.6 1.6 0.00 0.00 0.00 90 1013.0
20260906130743 26 67 0.0 1.6 0.00 0.00 0.00 90 1013.2
20260906130238 26 67 0.0 1.6 0.00 0.00 0.00 91 1013.2
20260906125737 25 84 0.0 0.0 0.00 0.00 0.00 91 1012.8
20260906125235 25 71 1.6 1.6 0.00 0.00 0.00 91 1013.0
20260906124730 25 76 0.0 0.0 0.00 0.00 0.00 92 1012.6
20260906124226 25 69 0.0 0.0 0.00 0.00 0.00 91 1012.8
20260906123724 25 67 0.0 0.0 0.00 0.00 0.00 91 1012.8
20260906123220 25 67 0.0 0.0 0.00 0.00 0.00 91 1012.7
20260906122719 25 71 0.0 0.0 0.00 0.00 0.00 91 1012.8
20260906122215 25 68 0.0 0.0 0.00 0.00 0.00 91 1012.6
20260906121711 25 69 0.0 1.6 0.00 0.00 0.00 91 1012.6
20260906121207 25 63 0.0 0.0 0.00 0.00 0.00 91 1012.5
20260906120703 25 72 0.0 0.0 0.00 0.00 0.00 91 1012.4
20260906120159 25 70 0.0 0.0 0.00 0.00 0.00 90 1012.3
20260906115654 25 70 0.0 0.0 0.00 0.00 0.00 90 1012.3
20260906115150 25 71 0.0 0.0 0.00 0.00 0.00 90 1012.2
20260906114648 25 71 0.0 0.0 0.00 0.00 0.00 90 1012.1
20260906114144 25 69 0.0 0.0 0.00 0.00 0.00 90 1011.9
20260906113643 25 69 0.0 0.0 0.00 0.00 0.00 90 1012.0
20260906113138 25 67 0.0 0.0 0.00 0.00 0.00 90 1012.1
20260906112637 25 75 0.0 0.0 0.00 0.00 0.00 90 1012.0
20260906112135 25 81 0.0 1.6 0.00 0.00 0.00 90 1011.9
20260906111634 25 76 0.0 1.6 0.00 0.00 0.00 89 1012.2
20260906111129 25 76 0.0 1.6 0.00 0.00 0.00 89 1012.1
20260906110624 25 74 0.0 0.0 0.00 0.00 0.00 89 1012.0
20260906110118 25 74 0.0 1.6 0.00 0.00 0.00 89 1012.1
20260906105612 25 65 1.6 3.2 0.00 0.00 0.00 89 1012.0
20260906105109 25 73 0.0 0.0 0.00 0.00 0.00 88 1011.7
20260906104608 25 74 0.0 0.0 0.00 0.00 0.00 88 1011.7
20260906104102 25 78 0.0 0.0 0.00 0.00 0.00 88 1011.8
20260906103600 25 74 0.0 0.0 0.00 0.00 0.00 88 1011.9
20260906103056 25 71 0.0 0.0 0.00 0.00 0.00 88 1011.8
20260906102555 25 71 0.0 0.0 0.00 0.00 0.00 88 1011.8
20260906102051 25 70 0.0 0.0 0.00 0.00 0.00 87 1011.9
20260906101545 25 67 0.0 0.0 0.00 0.00 0.00 87 1011.8
20260906101040 25 68 0.0 0.0 0.00 0.00 0.00 87 1011.9
20260906100535 25 71 0.0 0.0 0.00 0.00 0.00 87 1011.8
20260906100030 25 71 0.0 0.0 0.00 0.00 0.00 87 1011.5
20260906095524 25 71 0.0 0.0 0.00 0.00 0.00 86 1011.5
20260906095020 25 69 0.0 0.0 0.00 0.00 0.00 86 1011.5
20260906094519 25 67 0.0 0.0 0.00 0.00 0.00 86 1011.6
20260906094015 26 67 0.0 0.0 0.00 0.00 0.00 86 1011.6
20260906093511 26 70 0.0 0.0 0.00 0.00 0.00 85 1011.4
20260906093011 26 71 0.0 0.0 0.00 0.00 0.00 84 1011.5
20260906092505 26 73 0.0 0.0 0.00 0.00 0.00 84 1011.4
20260906092001 26 73 0.0 0.0 0.00 0.00 0.00 84 1011.3
20260906091456 26 73 0.0 0.0 0.00 0.00 0.00 84 1011.5
20260906090953 26 67 0.0 0.0 0.00 0.00 0.00 84 1011.2
20260906090448 26 71 0.0 0.0 0.00 0.00 0.00 83 1011.2
20260906085947 26 71 0.0 0.0 0.00 0.00 0.00 83 1011.3
20260906085447 26 75 0.0 0.0 0.00 0.00 0.00 83 1011.3
20260906084946 26 77 0.0 1.6 0.00 0.00 0.00 83 1011.0
20260906084441 26 88 0.0 1.6 0.00 0.00 0.00 83 1011.2
20260906083940 26 76 0.0 1.6 0.00 0.00 0.00 83 1011.1
20260906083436 26 70 0.0 0.0 0.00 0.00 0.00 83 1010.9
20260906082935 26 74 0.0 1.6 0.00 0.00 0.00 82 1011.1
20260906082430 27 84 0.0 1.6 0.00 0.00 0.00 81 1011.0
20260906081926 27 80 0.0 0.0 0.00 0.00 0.00 81 1011.0
20260906081421 27 84 0.0 0.0 0.00 0.00 0.00 81 1011.1
20260906080917 27 81 0.0 1.6 0.00 0.00 0.00 81 1011.0
20260906080414 27 77 0.0 0.0 0.00 0.00 0.00 82 1011.3
20260906075912 27 75 0.0 0.0 0.00 0.00 0.00 81 1011.1
20260906075408 27 77 0.0 1.6 0.00 0.00 0.00 80 1011.3
20260906074903 27 75 0.0 0.0 0.00 0.00 0.00 81 1011.2
20260906074403 27 76 0.0 1.6 0.00 0.00 0.00 81 1011.2
20260906073901 27 70 0.0 0.0 0.00 0.00 0.00 82 1011.0
20260906073357 27 76 0.0 0.0 0.00 0.00 0.00 80 1011.0
20260906072853 27 78 0.0 1.6 0.00 0.00 0.00 80 1011.0
20260906072349 27 72 0.0 1.6 0.00 0.00 0.00 80 1010.7
20260906071844 27 70 0.0 0.0 0.00 0.00 0.00 81 1010.9
20260906071339 27 71 0.0 0.0 0.00 0.00 0.00 81 1011.0
20260906070836 27 76 0.0 0.0 0.00 0.00 0.00 78 1011.2
20260906070331 27 76 0.0 1.6 0.00 0.00 0.00 77 1011.3
20260906065826 27 71 0.0 0.0 0.00 0.00 0.00 76 1011.5
20260906065321 27 82 0.0 1.6 0.00 0.00 0.00 76 1011.5
20260906064816 27 76 0.0 0.0 0.00 0.00 0.00 75 1011.3
20260906064313 28 77 0.0 1.6 0.00 0.00 0.00 75 1011.4
20260906063807 28 79 0.0 1.6 0.00 0.00 0.00 75 1011.5
20260906063303 28 75 0.0 1.6 0.00 0.00 0.00 74 1011.3
20260906062758 28 93 1.6 1.6 0.00 0.00 0.00 74 1011.3
20260906062257 28 76 0.0 0.0 0.00 0.00 0.00 74 1011.3
20260906061752 28 83 0.0 1.6 0.00 0.00 0.00 73 1011.2
20260906061249 28 107 0.0 1.6 0.00 0.00 0.00 73 1011.3
20260906060744 28 77 0.0 1.6 0.00 0.00 0.00 73 1011.3
20260906060241 28 85 0.0 1.6 0.00 0.00 0.00 72 1011.5
20260906055737 28 77 0.0 1.6 0.00 0.00 0.00 72 1011.4
20260906055232 28 82 0.0 1.6 0.00 0.00 0.00 71 1011.4
20260906054727 28 74 0.0 3.2 0.00 0.00 0.00 71 1011.4
20260906054222 28 77 0.0 3.2 0.00 0.00 0.00 70 1011.7
20260906053719 28 81 0.0 1.6 0.00 0.00 0.00 70 1011.6
20260906053214 28 76 0.0 0.0 0.00 0.00 0.00 71 1011.4
20260906052709 28 81 0.0 3.2 0.00 0.00 0.00 71 1011.4
20260906052205 28 83 0.0 1.6 0.00 0.00 0.00 71 1011.3
20260906051702 28 75 0.0 0.0 0.00 0.00 0.00 71 1011.3
20260906051201 28 76 0.0 3.2 0.00 0.00 0.00 71 1011.3
20260906050657 29 75 0.0 1.6 0.00 0.00 0.00 71 1011.3
20260906050152 29 79 0.0 0.0 0.00 0.00 0.00 71 1011.4
20260906045650 29 76 0.0 0.0 0.00 0.00 0.00 71 1011.3
20260906045146 29 85 0.0 1.6 0.00 0.00 0.00 70 1011.1
20260906044642 29 77 0.0 0.0 0.00 0.00 0.00 70 1011.2
20260906044137 29 74 0.0 0.0 0.00 0.00 0.00 70 1011.5
20260906043633 29 75 0.0 0.0 0.00 0.00 0.00 70 1011.2
20260906043128 29 81 0.0 0.0 0.00 0.00 0.00 69 1011.7
20260906042627 30 86 1.6 3.2 0.00 0.00 0.00 69 1011.6
20260906042122 29 98 1.6 3.2 0.00 0.00 0.00 69 1011.3
20260906041618 30 79 0.0 1.6 0.00 0.00 0.00 69 1011.2
20260906041112 30 84 1.6 3.2 0.00 0.00 0.00 69 1011.3
20260906040608 30 80 0.0 0.0 0.00 0.00 0.00 68 1011.5
20260906040103 30 93 1.6 3.2 0.00 0.00 0.00 68 1011.3
20260906035558 30 76 0.0 1.6 0.00 0.00 0.00 68 1011.2
20260906035054 30 79 0.0 3.2 0.00 0.00 0.00 68 1011.6
20260906034554 30 81 0.0 1.6 0.00 0.00 0.00 68 1011.4
20260906034049 30 85 0.0 3.2 0.00 0.00 0.00 68 1011.3
20260906033544 30 76 0.0 1.6 0.00 0.00 0.00 68 1011.2
20260906033039 30 81 0.0 1.6 0.00 0.00 0.00 67 1011.2
20260906032536 30 78 0.0 1.6 0.00 0.00 0.00 67 1011.5
20260906032030 30 94 1.6 3.2 0.00 0.00 0.00 67 1011.3
20260906031526 30 124 0.0 1.6 0.00 0.00 0.00 67 1011.7
20260906031016 30 87 0.0 0.0 0.00 0.00 0.00 67 1011.4
20260906030515 30 120 3.2 4.8 0.00 0.00 0.00 66 1011.4
20260906030014 30 96 0.0 3.2 0.00 0.00 0.00 66 1011.5
20260906025514 30 74 0.0 1.6 0.00 0.00 0.00 65 1011.4
20260906025012 30 82 0.0 1.6 0.00 0.00 0.00 65 1011.3
20260906024508 30 79 1.6 1.6 0.00 0.00 0.00 65 1011.2
20260906024002 30 74 0.0 0.0 0.00 0.00 0.00 64 1011.2
20260906023458 30 102 3.2 4.8 0.00 0.00 0.00 64 1010.8
20260906022953 30 101 3.2 4.8 0.00 0.00 0.00 64 1011.0
20260906022449 30 71 0.0 1.6 0.00 0.00 0.00 63 1010.9
20260906021943 31 87 1.6 3.2 0.00 0.00 0.00 62 1010.9
20260906021438 31 76 1.6 3.2 0.00 0.00 0.00 62 1010.9
20260906020932 31 87 1.6 3.2 0.00 0.00 0.00 61 1010.7
20260906020426 31 90 0.0 3.2 0.00 0.00 0.00 61 1010.8
20260906015921 31 89 0.0 3.2 0.00 0.00 0.00 61 1010.9
20260906015415 31 88 1.6 8.0 0.00 0.00 0.00 61 1010.7
20260906014914 31 82 0.0 0.0 0.00 0.00 0.00 61 1010.6
20260906014409 31 106 1.6 3.2 0.00 0.00 0.00 60 1010.5
20260906013905 31 122 1.6 4.8 0.00 0.00 0.00 60 1010.7
20260906013401 32 143 1.6 4.8 0.00 0.00 0.00 59 1010.3
20260906012856 32 88 1.6 4.8 0.00 0.00 0.00 58 1010.4
20260906012351 32 101 3.2 4.8 0.00 0.00 0.00 56 1010.3
20260906011850 32 80 0.0 3.2 0.00 0.00 0.00 55 1010.2
20260906011345 33 101 4.8 8.0 0.00 0.00 0.00 54 1009.9
20260906010841 33 121 4.8 11.3 0.00 0.00 0.00 54 1010.0
20260906010337 33 152 8.0 12.9 0.00 0.00 0.00 53 1009.8
20260906005832 33 108 3.2 9.7 0.00 0.00 0.00 52 1009.6
20260906005332 34 134 4.8 9.7 0.00 0.00 0.00 50 1009.6
20260906004831 35 107 1.6 3.2 0.00 0.00 0.00 47 1009.6
20260906004331 35 77 3.2 4.8 0.00 0.00 0.00 46 1009.3
20260906003826 35 78 0.0 1.6 0.00 0.00 0.00 46 1009.4
20260906003321 35 85 0.0 4.8 0.00 0.00 0.00 46 1009.5
20260906002816 35 72 3.2 3.2 0.00 0.00 0.00 45 1009.5
20260906002315 35 82 1.6 4.8 0.00 0.00 0.00 45 1009.5
20260906001812 35 84 1.6 3.2 0.00 0.00 0.00 44 1009.6
20260906001306 35 79 0.0 3.2 0.00 0.00 0.00 45 1009.6
20260906000801 35 86 3.2 8.0 0.00 0.00 0.00 45 1009.7
20260906000256 35 89 1.6 3.2 0.00 0.00 0.00 45 1009.7
20260905235751 35 72 1.6 8.0 0.00 0.00 0.00 44 1009.6
20260905235250 36 101 4.8 4.8 0.00 0.00 0.00 44 1009.3
20260905234746 36 30 6.4 8.0 0.00 0.00 0.00 43 1009.2
20260905234241 36 87 3.2 4.8 0.00 0.00 0.00 43 1009.1
20260905233737 36 65 1.6 3.2 0.00 0.00 0.00 43 1009.3
20260905233236 36 77 3.2 4.8 0.00 0.00 0.00 43 1009.3
20260905232730 36 79 4.8 8.0 0.00 0.00 0.00 42 1009.3
20260905232226 36 87 0.0 3.2 0.00 0.00 0.00 42 1009.4
20260905231722 36 93 0.0 3.2 0.00 0.00 0.00 42 1009.5
20260905231217 36 77 0.0 1.6 0.00 0.00 0.00 42 1009.3
20260905230714 37 56 1.6 8.0 0.00 0.00 0.00 41 1009.6
20260905230210 37 100 3.2 3.2 0.00 0.00 0.00 40 1009.6
20260905225705 37 91 4.8 4.8 0.00 0.00 0.00 40 1009.4